Content
SEND FEEDBACK

Daily
Averages
Monthly
Summary
United States of America

TOLBERT, TEXAS


Home > North America > United States > Texas
Elevation: 1390 feet     Latitude: 34 16N     Longitude: 099 30W

WEATHER
 
SELECT A DAY
Number of Records: 267,095;   Date Range: 6/6/03 - 9/30/14
 
SHARE

PRINT THIS DATA

[ ← Previous Day ]
WEATHER ALMANAC - FEBRUARY 5, 2013
[ Next Day → ]
[ °C ]   °F
Weather ElementAverageHighLow
Temperature51.8 °F69.8 °F (4:15 pm)33.6 °F (7:55 am)
Dewpoint34.8 °F52.7 °F (7:55 pm)24.4 °F (7:55 am)
Humidity57.1 %95 % (11:55 pm)23 % (2:55 pm)
Barometer29.98 in30.04 in (10:35 am)29.93 in (2:35 am)
Wind Speed5.9 mph16.1 mph (8:35 pm)
Weather ElementAverage
Visibility8.9 mi
Wind DirectionSSE (141.9 °)

Weather ElementTotal
Precipitation---
Heating Degree Days13.3 (Base 65)
Growing Degree Days1.7 (Base 50)
Averaged from 70 records on February 5, 2013
WEATHER CONDITIONS BREAKOUT
WIND DIRECTION BREAKOUT
WEATHER BY HOUR - FEBRUARY 5, 2013
[ °C ]   °F
Local TimeTemperatureDewpointHumidityBarometerVisibilityWind DirectionWind SpeedGust SpeedPrecipitationEventsConditions
12:35 AM46.2 °F26.2 °F46 %29.96 in10.0 miNorth (360°)6.9 mphClear
12:55 AM46.0 °F25.9 °F45 %29.96 in10.0 miNorth (360°)5.8 mphClear
1:15 AM45.1 °F25.7 °F47 %29.95 in10.0 miNorth (360°)6.9 mphClear
1:35 AM45.0 °F25.3 °F46 %29.95 in10.0 miNorth (360°)4.6 mphClear
1:55 AM42.8 °F25.2 °F50 %29.94 in10.0 miNorth (10°)4.6 mphClear
2:15 AM41.0 °F25.5 °F54 %29.94 in10.0 miNorth (10°)5.8 mphClear
2:35 AM38.8 °F25.2 °F58 %29.93 in10.0 miNorth (350°)4.6 mphClear
2:55 AM37.9 °F25.2 °F60 %29.93 in10.0 miNorth (350°)4.6 mphClear
3:15 AM38.8 °F25.3 °F58 %29.93 in10.0 miNNW (330°)3.5 mphClear
3:35 AM38.3 °F25.2 °F59 %29.93 in10.0 miNorth (350°)4.6 mphClear
3:55 AM37.8 °F25.2 °F60 %29.93 in10.0 miNorth (10°)5.8 mphClear
4:15 AM36.5 °F25.2 °F64 %29.93 in10.0 miNNE (20°)3.5 mphClear
4:35 AM36.0 °F25.0 °F64 %29.93 in10.0 miNorth (350°)3.5 mphClear
4:55 AM36.5 °F25.3 °F64 %29.93 in10.0 miNorth (360°)5.8 mphClear
5:15 AM35.1 °F24.6 °F66 %29.94 in10.0 miCalmClear
5:35 AM36.0 °F24.6 °F63 %29.94 in10.0 miCalmClear
5:55 AM36.0 °F24.8 °F64 %29.95 in10.0 miNW (310°)5.8 mphScattered Clouds
6:15 AM35.1 °F24.8 °F66 %29.97 in10.0 miNW (310°)6.9 mphScattered Clouds
6:35 AM35.1 °F25.0 °F67 %29.98 in10.0 miNNW (330°)6.9 mphScattered Clouds
6:55 AM35.1 °F25.3 °F68 %29.98 in10.0 miNorth (350°)5.8 mphClear
7:15 AM35.6 °F24.6 °F64 %29.99 in10.0 miCalmClear
7:35 AM34.9 °F24.6 °F66 %29.98 in10.0 miCalmClear
7:55 AM33.6 °F24.4 °F69 %29.98 in10.0 miWSW (250°)4.6 mphClear
8:15 AM33.8 °F25.2 °F71 %29.99 in10.0 miWNW (290°)3.5 mphClear
8:35 AM36.7 °F26.4 °F66 %30.01 in10.0 miNorth (350°)5.8 mphClear
8:55 AM40.3 °F28.0 °F62 %30.02 in10.0 miNNW (340°)3.5 mphClear
9:15 AM44.1 °F29.8 °F57 %30.02 in10.0 miCalmClear
9:35 AM47.8 °F30.7 °F52 %30.02 in10.0 miNE (40°)4.6 mphClear
9:55 AM50.0 °F31.3 °F49 %30.03 in10.0 miNE (40°)3.5 mphClear
10:15 AM51.1 °F32.0 °F48 %30.03 in10.0 miCalmClear
10:35 AM52.9 °F32.7 °F46 %30.04 in10.0 miCalmClear
10:55 AM54.1 °F33.4 °F46 %30.04 in10.0 miCalmClear
11:15 AM55.4 °F33.6 °F44 %30.04 in10.0 miCalmClear
11:35 AM57.6 °F33.8 °F41 %30.04 in10.0 miWNW (300°)3.5 mphClear
11:55 AM59.5 °F33.3 °F37 %30.03 in10.0 miCalmClear
12:15 PM61.5 °F32.4 °F33 %30.03 in10.0 miCalmClear
12:35 PM62.4 °F31.8 °F32 %30.01 in10.0 miCalmClear
12:55 PM64.0 °F31.1 °F29 %30.00 in10.0 miCalmClear
1:15 PM64.9 °F30.2 °F27 %29.99 in10.0 miCalmClear
1:35 PM66.0 °F30.7 °F27 %29.98 in10.0 miCalmClear
1:55 PM66.9 °F30.9 °F26 %29.97 in10.0 miENE (60°)4.6 mphClear
2:15 PM67.5 °F29.8 °F25 %29.97 in10.0 miSSE (150°)4.6 mphClear
2:35 PM68.4 °F30.0 °F24 %29.97 in10.0 miSSE (150°)5.8 mphClear
2:55 PM68.5 °F29.1 °F23 %29.96 in10.0 miESE (120°)6.9 mphClear
3:15 PM68.7 °F29.7 °F23 %29.96 in10.0 miSE (140°)8.1 mphClear
3:35 PM69.3 °F30.4 °F24 %29.95 in10.0 miESE (110°)8.1 mphClear
3:55 PM69.6 °F31.5 °F24 %29.95 in10.0 miESE (120°)6.9 mphClear
4:15 PM69.8 °F31.6 °F24 %29.95 in10.0 miESE (110°)6.9 mphClear
4:35 PM69.6 °F33.3 °F26 %29.96 in10.0 miESE (110°)8.1 mphClear
4:55 PM69.4 °F35.2 °F28 %29.96 in10.0 miESE (110°)9.2 mphClear
5:15 PM68.5 °F39.4 °F34 %29.96 in10.0 miESE (110°)10.4 mphClear
5:55 PM65.7 °F46.2 °F49 %29.96 in10.0 miEast (100°)10.4 mphClear
6:15 PM63.5 °F48.0 °F57 %29.96 in10.0 miESE (110°)11.5 mphClear
6:35 PM61.3 °F49.8 °F66 %29.97 in10.0 miESE (110°)12.7 mphClear
6:55 PM59.0 °F50.7 °F74 %29.98 in10.0 miESE (110°)12.7 mphClear
7:15 PM56.5 °F50.9 °F82 %29.99 in7.0 miESE (110°)12.7 mphClear
7:35 PM55.0 °F51.6 °F88 %29.99 in5.0 miESE (110°)13.8 mphMostly Cloudy
7:55 PM55.8 °F52.7 °F89 %30.00 in5.0 miESE (120°)15.0 mphOvercast
8:15 PM56.3 °F52.7 °F88 %30.00 in7.0 miESE (120°)15.0 mphOvercast
8:35 PM56.1 °F52.3 °F87 %30.01 in7.0 miESE (120°)16.1 mphOvercast
8:55 PM55.6 °F52.2 °F88 %30.02 in5.0 miESE (120°)12.7 mphOvercast
9:15 PM55.8 °F52.3 °F88 %30.02 in7.0 miESE (120°)10.4 mphOvercast
9:35 PM56.3 °F52.7 °F88 %30.02 in7.0 miESE (120°)8.1 mphOvercast
9:55 PM56.3 °F52.2 °F86 %30.02 in7.0 miSE (130°)6.9 mphOvercast
10:15 PM55.2 °F51.4 °F87 %30.03 in7.0 miESE (110°)9.2 mphMostly Cloudy
10:35 PM55.2 °F52.5 °F91 %30.03 in5.0 miESE (110°)10.4 mphOvercast
10:55 PM55.0 °F52.7 °F92 %30.03 in2.5 miESE (120°)9.2 mphOvercast
11:15 PM54.7 °F52.7 °F93 %30.03 in1.0 miEast (100°)9.2 mphOvercast
11:35 PM54.3 °F52.7 °F94 %30.03 in0.5 miEast (100°)6.9 mphOvercast
11:55 PM54.0 °F52.5 °F95 %30.03 in0.2 miESE (110°)4.6 mphOvercast
Hourly data recorded from KF05, located miles away from Tolbert, Texas







STORIES FROM OUR PARTNERS